This is the latest recevied weather packets stored in our database for station/object XW7RMR. If no packets are shown the sender has not sent any weather packets the latest 10 day(s).
| Time | Temp. | Humidity | Pressure | Rain* | Wind** | Luminosity | Snow |
|---|---|---|---|---|---|---|---|
| 1788137649 | 74° F | 49% | 761.2 mmHg | 0 in | - | 197 W/m² | - |
| 1788137349 | 74° F | 49% | 761.4 mmHg | 0 in | - | 215 W/m² | - |
| 1788137046 | 74° F | 49% | 761.3 mmHg | 0 in | - | 227 W/m² | - |
| 1788136741 | 74° F | 49% | 761.5 mmHg | 0 in | - | 241 W/m² | - |
| 1788136437 | 74° F | 49% | 761.4 mmHg | 0 in | - | 254 W/m² | - |
| 1788136136 | 74° F | 48% | 761.5 mmHg | 0 in | - | 266 W/m² | - |
| 1788135836 | 74° F | 49% | 761.6 mmHg | 0 in | - | 279 W/m² | - |
| 1788135531 | 75° F | 47% | 761.5 mmHg | 0 in | - | 297 W/m² | - |
| 1788135231 | 74° F | 48% | 761.5 mmHg | 0 in | - | 316 W/m² | - |
| 1788134929 | 74° F | 48% | 761.5 mmHg | 0 in | - | 335 W/m² | - |
| 1788134624 | 74° F | 49% | 761.6 mmHg | 0 in | - | 354 W/m² | - |
| 1788134322 | 74° F | 49% | 761.5 mmHg | 0 in | - | 364 W/m² | - |
| 1788134017 | 74° F | 48% | 761.8 mmHg | 0 in | - | 363 W/m² | - |
| 1788133712 | 74° F | 48% | 761.6 mmHg | 0 in | - | 340 W/m² | - |
| 1788133408 | 74° F | 47% | 761.7 mmHg | 0 in | - | 411 W/m² | - |
| 1788133104 | 74° F | 47% | 761.8 mmHg | 0 in | - | 431 W/m² | - |
| 1788132799 | 74° F | 48% | 761.8 mmHg | 0 in | - | 447 W/m² | - |
| 1788132495 | 74° F | 48% | 761.9 mmHg | 0 in | - | 431 W/m² | - |
| 1788132190 | 74° F | 48% | 761.8 mmHg | 0 in | - | 442 W/m² | - |
| 1788131887 | 73° F | 49% | 761.9 mmHg | 0 in | - | 467 W/m² | - |
| 1788131587 | 74° F | 47% | 762 mmHg | 0 in | - | 505 W/m² | - |
| 1788131281 | 73° F | 48% | 762 mmHg | 0 in | - | 493 W/m² | - |
| 1788130977 | 74° F | 47% | 762 mmHg | 0 in | - | 522 W/m² | - |
| 1788130676 | 74° F | 48% | 762.1 mmHg | 0 in | - | 527 W/m² | - |
| 1788130371 | 75° F | 48% | 762.3 mmHg | 0 in | - | 540 W/m² | - |
* Rain latest hour (hover to see other rain measurements)
** Current wind speed in m/s (hover to see current wind gust speed)